MDT,Max TemperatureF,Mean TemperatureF,Min TemperatureF,Max Dew PointF,MeanDew PointF,Min DewpointF,Max Humidity, Mean Humidity, Min Humidity, Max Sea Level PressureIn, Mean Sea Level PressureIn, Min Sea Level PressureIn, Max VisibilityMiles, Mean VisibilityMiles, Min VisibilityMiles, Max Wind SpeedMPH, Mean Wind SpeedMPH, Max Gust SpeedMPH,PrecipitationIn, CloudCover, Events, WindDirDegrees
2012-10-1,68,49,30,32,29,25,87,52,21,30.47,30.37,30.26,10,10,10,12,5,,0.00,0,,279
2012-10-2,69,48,28,28,22,16,80,43,14,30.25,30.14,30.05,10,10,10,24,7,30,0.00,1,,286
2012-10-3,57,42,26,23,15,5,80,39,12,30.29,30.12,30.04,10,10,10,25,7,36,0.00,1,,300
2012-10-4,46,32,17,21,17,14,86,58,27,30.33,30.23,30.11,10,10,10,9,4,,0.00,1,,283
2012-10-5,50,36,21,21,12,-2,86,44,15,30.24,30.17,30.11,10,10,10,18,6,24,0.00,1,,277
2012-10-6,42,28,14,18,10,5,86,49,23,30.32,30.23,30.17,10,10,10,9,5,,0.00,0,,273
2012-10-7,55,32,10,14,10,3,85,49,14,30.23,30.17,30.09,10,10,10,13,5,20,0.00,0,,292
2012-10-8,59,38,17,14,10,7,74,37,13,30.13,30.05,29.97,10,10,10,21,7,30,0.00,0,,289
2012-10-9,59,40,21,19,14,9,60,40,21,30.17,30.09,30.02,10,10,10,20,7,28,0.00,0,,291
2012-10-10,64,42,19,23,18,14,86,46,14,30.20,30.13,30.05,10,10,10,14,4,22,0.00,1,,293
2012-10-11,64,45,26,27,23,19,74,45,21,30.17,30.12,30.08,10,10,10,7,3,,0.00,3,,286
2012-10-12,60,43,26,37,29,21,93,61,29,30.11,30.05,29.97,10,10,10,15,4,18,0.00,4,,211
2012-10-13,53,40,28,37,32,28,100,73,44,30.32,30.14,30.02,10,8,0,24,8,33,0.00,5,Fog,290
2012-10-14,60,44,28,34,29,21,100,63,22,30.40,30.33,30.29,10,10,10,18,8,25,0.00,1,,291
2012-10-15,57,42,26,32,29,25,100,67,36,30.29,30.16,30.09,10,10,10,24,7,36,0.00,2,,290
2012-10-16,51,40,30,45,33,21,100,80,50,30.09,29.89,29.77,10,10,5,25,7,36,0.00,5,Rain,273
2012-10-17,41,32,24,23,13,5,69,45,23,30.19,30.07,29.90,10,10,10,34,18,44,0.00,0,,304
2012-10-18,53,38,23,23,17,10,74,45,24,30.27,30.23,30.19,10,10,10,26,14,32,0.00,1,,296
2012-10-19,59,41,23,28,24,19,93,58,22,30.24,30.13,30.01,10,10,10,23,5,32,0.00,4,,284
2012-10-20,60,46,33,32,28,25,87,52,25,30.00,29.87,29.79,10,10,10,23,4,33,0.00,7,,321
2012-10-21,50,42,35,37,33,28,93,71,50,29.92,29.89,29.83,10,10,10,21,5,23,0.00,7,Rain,322
2012-10-22,51,43,35,43,38,34,100,87,54,29.89,29.79,29.70,10,9,3,25,8,37,0.00,7,Rain-Thunderstorm,167
2012-10-23,37,32,28,37,30,23,100,92,75,29.95,29.87,29.72,10,9,1,23,9,28,0.00,8,Rain-Snow,219
2012-10-24,35,28,21,25,20,12,100,74,41,30.06,29.97,29.92,10,9,1,13,4,21,0.00,4,Snow,302
2012-10-25,32,26,21,25,21,16,100,82,51,30.26,30.12,30.06,10,9,2,20,6,25,0.00,6,Snow,248
2012-10-26,32,22,12,23,15,9,100,71,44,30.38,30.27,30.15,10,10,2,13,5,,0.00,4,Snow,300
2012-10-27,37,30,23,28,24,21,100,81,52,30.16,30.13,30.10,10,10,5,21,3,26,0.00,7,Snow,292
2012-10-28,48,39,30,37,32,28,100,82,57,30.19,30.15,30.13,10,10,10,18,5,25,0.00,6,,301
2012-10-29,53,42,30,37,34,30,100,80,44,30.27,30.22,30.19,10,10,10,17,3,22,0.00,5,,332
2012-10-30,55,39,23,32,27,23,100,73,31,30.30,30.26,30.22,10,10,10,13,4,18,0.00,2,,286
2012-10-31,60,42,23,32,27,23,100,71,23,30.31,30.25,30.17,10,10,10,12,5,,0.00,2,,283